sat.trackr.live / text

‹ back to catalog

ONEWEB-0274

NORAD 48992 · 2021-060AB

PAYLOAD ACTIVE UNKNOWN

§ Identity

Operator
Country
UK
Launch date
2021-07-01
Launch site
VOSTO
Launch vehicle
Mass (kg)
RCS (m²)

Purposes: comms

External: N2YO · Heavens-Above · Gunter

§ Orbital elements

Epoch: 2026-09-20T03:51:25.948800Z

Period
109.37 min
Inclination
87.9150°
Eccentricity
0.0002315
Mean motion
13.16594822 rev/d
Perigee alt
1,196.0 km
Apogee alt
1,199.5 km
Semi-major
7,575.9 km
B*
2.3060e-4
RAAN
209.9231°
Arg perigee
76.5427°
Mean anomaly
283.5961°
Rev number
25,212

§ Raw data

ONEWEB-02741 48992U 21060AB  26263.16071700  .00000101  00000+0  23060-3 0  99972 48992  87.9150 209.9231 0002315  76.5427 283.5961 13.16594822252129

JSON: /api/v1/satellites/48992 · /tle

For live sub-satellite position, see the globe view (requires WebGL).

§ Visibility from observer

Set your observer location to see the next 7 days of passes ≥ 10°. The values pass through the URL so the page stays shareable.

No JS? Fill the form by hand. The geolocation button needs JavaScript.